Hourly Data Report for October 03, 2017

All times are specified in Local Standard Time (LST). Add 1 hour to adjust for Daylight Saving Time where and when it is observed.

SECHELT AUT
BRITISH COLUMBIA

49°27'28.788" N
123°42'54.945" W
86.20 m
1047172
71638
VOU

Download Data

Hourly Data (October 2017)
Hourly Data Report for October 3, 2017
Temp Definition
°C
Dew Point Temp Definition
°C
Rel Hum Definition
%
Wind Dir Definition
10's deg

Wind Spd Definition
km/h
Visibility Definition
km
Stn Press Definition
kPa
Hmdx Definition


Wind Chill Definition


Weather Definition


TIME
00:00 7.1 2.7 74 33 3   101.51     LegendNANA
01:00 7.8 3.2 73 33 6   101.55     LegendNANA
02:00 7.5 2.1 68 32 9   101.57     LegendNANA
03:00 7.7 1.6 65 31 5   101.56     LegendNANA
04:00 6.7 1.9 71 7 2   101.58     LegendNANA
05:00 6.0 1.5 73 33 6   101.62     LegendNANA
06:00 5.3 1.8 78 33 6   101.63     LegendNANA
07:00 6.9 2.4 73 1 3   101.62     LegendNANA
08:00 9.9 4.5 69 35 3   101.65     LegendNANA
09:00 13.7 3.5 50 31 3   101.69     LegendNANA
10:00 15.9 4.7 47 19 4   101.70     LegendNANA
11:00 15.6 4.4 47 16 5   101.68     LegendNANA
12:00 14.8 6.8 59 28 5   101.63     LegendNANA
13:00 16.0 5.0 48 20 3   101.57     LegendNANA
14:00 17.3 3.0 39 24 3   101.52     LegendNANA
15:00 17.2 2.0 36 27 3   101.47     LegendNANA
16:00 16.4 3.1 41 30 5   101.39     LegendNANA
17:00 14.6 6.2 57 32 8   101.34     LegendNANA
18:00 10.8 6.8 76 32 6   101.31     LegendNANA
19:00 10.4 6.4 76 31 10   101.29     LegendNANA
20:00 10.6 4.9 68 33 6   101.30     LegendNANA
21:00 9.9 5.4 74 33 9   101.31     LegendNANA
22:00 8.3 4.6 78 33 7   101.29     LegendNANA
23:00 8.7 4.1 73 32 8   101.28     LegendNANA

Notes on Data Quality.

Legend

  • E = Estimated
  • M = Missing
  • NA = Not Available
  • ‡ = Partner data that is not subject to review by the National Climate Archives
Date modified: